Location: Bern�
(47.9947°N, 3.3942°W)
Time: 07:50:17
(UTC+00:00)

Daily predictions for brighter satellites

Satellite Brightness Start Highest point End
(mag) Time Altitude Azimuth Time Altitude Azimuth Time Altitude Azimuth
Cosmos 968 Rocket 3.8 17:18:35 10° SSW 17:23:40 70° WNW 17:28:48 10° NNE
Envisat 3.6 17:19:07 10° S 17:24:09 63° WSW 17:29:13 10° NNW
Cosmos 1354 Rocket 4.2 17:20:28 10° S 17:25:41 61° ESE 17:30:58 10° NNE
NOAA 11 4.3 17:20:57 10° SSE 17:26:20 60° ENE 17:31:45 10° N
NOAA 6 4.4 17:21:42 10° S 17:26:50 75° WSW 17:32:01 10° NNW
USA-17 4.4 17:23:27 10° SW 17:27:12 85° SE 17:30:19 10° NE
Cosmos 2058 Rocket 4.3 17:23:43 10° NNE 17:27:18 23° ENE 17:30:51 10° ESE
Cosmos 1300 2.9 17:26:06 10° N 17:29:49 48° ENE 17:33:32 10° SSE
NOSS 7 (H) 4.2 17:28:45 10° SW 17:32:05 79° NW 17:35:01 10° NE
GENESIS II 4.3 17:30:58 10° SSW 17:34:56 65° SE 17:38:55 10° NE
Landsat 5 3.3 17:31:10 10° NNE 17:35:10 85° ESE 17:39:01 10° SSW
Cosmos 1953 4.4 17:32:01 10° NNW 17:35:34 31° W 17:39:06 10° SSW
ADEOS Rocket 4.1 17:33:20 10° N 17:39:06 43° WNW 17:44:25 10° SW
CREW DRAGON DEMO-1 DEB 3.4 17:36:29 10° WNW 17:39:15 38° N 17:41:52 11° ENE
Lacrosse 5 2.3 17:34:29 10° NW 17:39:21 44° NNE 17:44:12 10° E
Cosmos 1943 3.4 17:36:24 10° NNW 17:42:07 82° WSW 17:47:45 10° SSE
ISS -1.4 17:41:17 10° SSE 17:42:52 13° SE 17:44:27 10° ESE
Cosmos 1726 Rocket 3.8 17:38:51 10° N 17:43:04 45° ENE 17:47:16 10° SSE
ERS-2 3.8 17:42:13 10° NE 17:44:28 15° E 17:46:43 10° SE
Cosmos 1939 Rocket 3.1 17:41:27 10° SE 17:45:25 48° ENE 17:49:22 10° N
Meteor 1-24 Rocket 3.6 17:42:27 10° S 17:47:42 61° E 17:52:56 10° NNE
COSMOS 2455 3.5 17:42:50 10° S 17:48:19 38° ESE 17:53:49 10° NE
Cosmos 1833 Rocket 4.4 17:50:02 10° N 17:52:40 13° NNE 17:54:41 11° NE
Cosmos 1315 Rocket 2.9 17:51:41 10° NNW 17:55:40 81° W 17:59:39 10° S
IRS-1C Rocket 4.4 17:51:27 10° SE 17:56:23 44° ENE 18:01:22 10° N
CZ-4 R/B 2.3 17:54:19 10° SE 17:57:50 28° ENE 18:01:16 10° N
Feng Yun 1-1 Rocket 4.2 17:53:43 10° SSE 17:59:02 61° ENE 18:04:31 10° N
COSMO-SKYMED 1 2.9 17:58:00 10° NNE 18:02:10 43° E 18:06:18 10° S
Cosmos 2279 Rocket 4.0 17:56:38 10° N 18:02:57 81° E 18:09:13 10° S
Cosmos 2227 4.5 17:59:40 10° SW 18:05:17 70° WNW 18:11:00 10° NNE
Cosmos 2227 Rocket 4.4 18:05:10 10° W 18:08:54 18° NW 18:12:40 10° N
CZ-4B R/B 1.4 18:08:59 10° NNE 18:12:22 60° E 18:15:38 10° S
H-2A R/B 4.4 18:09:33 10° SSW 18:13:11 33° W 18:16:58 10° NNW
Okean-O 3.1 18:09:50 10° SE 18:13:56 38° ENE 18:18:03 10° N
CZ-2C R/B 3.1 18:10:10 10° SSE 18:15:24 65° ENE 18:20:57 10° N
Cosmos 1844 Rocket 3.3 18:10:23 10° S 18:15:30 36° ESE 18:19:24 16° NE
CSL-04 DEB 4.4 18:11:53 10° NNE 18:16:08 84° ESE 18:20:14 10° SSW
Okean O Rocket 2.8 18:12:33 10° S 18:16:50 47° W 18:21:09 10° NNW
Cosmos 1626 4.0 18:14:08 10° SW 18:17:28 31° WNW 18:20:49 10° N
H-2A R/B 2.3 18:13:18 10° SE 18:17:56 40° ENE 18:22:42 10° N
ATLAS 2AS CENTAUR R/B 3.8 18:10:33 10° WSW 18:18:06 45° NW 18:25:29 10° NE
Aureole 2 Rocket 2.8 18:16:11 10° S 18:18:55 32° ESE 18:19:28 29° E
Cosmos 1689 Rocket 3.7 18:20:00 18° SE 18:20:00 18° SE 18:21:20 10° SSE
Cosmos 158 Rocket 4.3 18:16:04 10° NNW 18:21:10 44° ENE 18:26:19 10° SE
Cosmos 1680 Rocket 4.1 18:18:18 10° N 18:23:04 33° ENE 18:26:36 16° ESE
SKYMED 3 4.5 18:21:51 10° NNE 18:26:13 75° ESE 18:30:33 10° S
CZ-2D R/B 3.3 18:27:32 10° S 18:31:23 81° WSW 18:35:16 10° NNW
Cosmos 1818 3.9 18:26:57 10° S 18:32:05 45° ESE 18:34:52 25° ENE
TELKOM 3 3.9 18:29:58 10° SW 18:32:11 35° SSE 18:32:11 35° SSE
SAR-Lupe-4 4.0 18:31:27 32° ENE 18:32:29 40° E 18:35:52 10° S
Meteor 2-10 Rocket 3.6 18:27:20 10° NNW 18:32:56 88° W 18:38:15 10° S
H-2A R/B 3.6 18:30:27 10° N 18:34:35 38° WNW 18:38:38 10° SW
Cosmos 489 Rocket 4.4 18:28:33 10° NNW 18:34:55 67° ENE 18:41:13 10° SSE
YAOGAN 1 2.5 18:31:34 10° SSE 18:35:48 58° ENE 18:40:04 10° N
Cosmos 1892 Rocket 3.7 18:32:38 10° SSW 18:36:59 75° W 18:41:20 10° N
CSL-04 Rocket 3.9 18:34:41 10° SE 18:39:48 45° ENE 18:45:00 10° N
Helios 1A Rocket 3.0 18:36:43 10° SSE 18:40:44 53° ENE 18:44:48 10° N
SAR-Lupe-1 4.1 18:42:35 42° NE 18:43:23 53° E 18:46:53 10° S
USA 234 3.7 18:40:19 25° ENE 18:43:46 45° NNE 18:49:57 10° WNW
Aureole 1 4.0 18:41:14 10° NNW 18:44:09 61° NE 18:44:09 61° NE
ATLAS 5 CENTAUR R/B 2.8 18:40:48 10° WSW 18:44:37 35° NW 18:47:38 17° NNE
Cosmos 1092 Rocket 4.1 18:39:51 10° SSE 18:45:44 47° E 18:51:36 10° NNE
Iridium 4 Rocket 3.9 18:40:43 10° N 18:46:10 43° E 18:51:13 10° SSE
MOS 1 Rocket 3.0 18:42:05 10° NNE 18:46:27 90° WNW 18:50:43 10° SSW
Meteor 2-1 Rocket 4.1 18:41:42 10° N 18:47:19 79° ENE 18:52:49 10° SSE
Cosmos 1812 Rocket 3.9 18:44:56 10° N 18:48:54 40° ENE 18:48:54 40° ENE
SKYMED 2 4.0 18:45:56 10° N 18:50:15 63° WNW 18:54:32 10° SSW
Cosmos 2344 4.3 18:43:16 10° NW 18:51:54 55° NE 18:59:36 23° ESE
SJ 16-02 1.2 18:49:58 10° S 18:54:21 70° ESE 18:55:59 37° NE
SJ-11-01 4.1 18:50:16 10° SSE 18:54:57 76° ENE 18:59:39 10° N
Aureole 3 2.8 18:53:19 10° N 18:56:57 83° W 19:00:02 10° S
Cosmos 2112 Rocket 4.0 18:55:31 10° NNW 19:00:42 55° ENE 19:02:18 39° ESE
Cosmos 1455 2.3 18:57:25 10° NNW 19:01:14 72° W 19:05:02 10° S
CZ-4C R/B 3.9 18:58:11 10° WNW 19:02:46 25° NNW 19:06:30 16° NNE
Nadezhda 4 Rocket 4.0 18:56:47 10° S 19:03:03 83° W 19:09:18 10° N
Cosmos 2263 Rocket 3.9 19:00:24 10° WSW 19:05:18 29° NW 19:10:12 10° NNE
Cosmos 2058 Rocket 4.4 19:01:14 10° NNW 19:05:28 42° W 19:09:43 10° SSW
X-37B 2.4 19:03:33 10° SW 19:05:31 25° S 19:05:31 25° S
Cosmos 1703 3.9 19:04:25 10° S 19:07:02 40° SSE 19:07:02 40° SSE
COSMOS 2406 3.7 19:09:50 10° NNW 19:14:49 40° NE 19:14:49 40° NE
ERS-2 3.2 19:16:37 26° NNW 19:18:14 43° WNW 19:21:41 10° SW
ARGOS 3.1 19:13:04 10° SSE 19:18:26 88° WSW 19:23:51 10° NNW
ISS -2.4 19:15:47 10° SW 19:17:58 36° SW 19:17:58 36° SW
Cosmos 44 4.0 19:15:26 10° SSW 19:18:46 38° SSE 19:18:46 38° SSE
Lacrosse 5 2.3 19:17:32 10° WNW 19:22:30 58° SW 19:24:16 37° SSE
CZ-2C R/B 2.7 19:27:18 62° ESE 19:27:18 62° ESE 19:32:35 10° S
CSL-04 Debris 4.3 19:23:23 10° S 19:28:45 72° WSW 19:34:10 10° NNW
Cosmos 1626 Rocket 4.0 19:25:23 10° SSW 19:29:42 61° WNW 19:31:13 38° NNW
NOSS 3-1 (C) 3.9 19:23:59 10° NW 19:31:22 78° NE 19:34:39 41° SE
CZ-4 R/B 3.3 19:29:09 10° SSW 19:32:46 30° W 19:36:24 10° NNW
COSMOS 2455 3.6 19:28:20 10° WSW 19:34:08 48° NW 19:37:13 26° NNE
Cosmos 1553 Rocket 4.0 19:30:04 10° N 19:36:14 63° ENE 19:36:14 63° ENE
Cosmos 990 Rocket 3.9 19:31:42 10° SSW 19:36:24 72° S 19:36:24 72° S
Cosmos 1844 3.8 19:31:40 10° SW 19:37:19 71° WNW 19:39:07 44° N
Cosmos 1833 Rocket 3.4 19:32:34 10° NNW 19:36:24 38° N 19:36:24 38° N
Cosmos 2026 Rocket 3.8 19:33:59 10° S 19:40:05 90° NW 19:46:20 10° N
Cosmos 2082 Rocket 3.7 19:35:01 10° NNW 19:37:47 24° N 19:37:47 24° N
USA 281 4.2 19:43:32 29° NNE 19:43:32 29° NNE 19:47:31 10° NNW
SL-08 RB Rocket 4.5 19:43:20 46° NNW 19:43:20 46° NNW 19:46:35 10° NNW
Meteor 2-19 Rocket 4.4 19:38:56 10° S 19:44:22 68° SSE 19:44:22 68° SSE
USA 229 DEB 3.7 19:41:05 10° NW 19:48:22 75° NE 19:49:18 67° E
USA 229 3.7 19:41:12 10° NW 19:48:28 74° NE 19:49:21 67° E
USA 267 3.4 19:51:34 53° SSE 19:51:34 53° SSE 19:57:19 10° SW
H-2A R/B 3.8 19:53:10 10° SSW 19:57:29 29° W 20:01:55 10° NNW
Cosmos 1844 Rocket 3.7 19:53:57 10° SW 19:59:19 42° NW 20:01:07 33° NNW
NOSS 3-1 (A) 3.9 19:56:33 10° NW 20:03:58 79° NE 20:04:26 76° E
Cosmos 1898 Rocket 4.4 20:00:29 10° SSW 20:04:03 43° SW 20:04:03 43° SW
ATLAS 2AS CENTAUR R/B 4.3 20:04:49 10° WNW 20:11:07 25° N 20:12:57 23° NNE
USA 234 3.5 20:27:40 62° NW 20:27:40 62° NW 20:33:00 10° NW
ATLAS 5 CENTAUR R/B 4.4 20:28:04 10° NW 20:29:10 13° NNW 20:29:10 13° NNW
SJ 16-02 4.0 20:30:37 10° W 20:33:01 16° WNW 20:33:01 16° WNW
